Location: Riverside Cemetery
(38.3047°N, 99.7773°W)
Time: 00:41:00
(UTC+00:00)

PSLV R/B - Pass Details

Date: 19 September 2020
Orbit: 593 x 630 km, 97.9° (Epoch: 23 October)

Event Time Altitude Azimuth Distance (km) Brightness Sun altitude
Rises 10:33:53 0° 12° (NNE) 2,849 7.4 -22.1°
Reaches altitude 10° 10:36:04 10° 13° (NNE) 1,939 6.5 -21.7°
Maximum altitude 10:40:17 85° 103° (ESE) 601 3.4 -20.9°
Enters shadow 10:42:07 33° 190° (S) 1,001 4.3 -20.6°
